Overview Statistics Trail Chart Weather Telemetry Raw packets
 

This is the latest recevied weather packets stored in our database for station/object SV3AQT-13. If no packets are shown the sender has not sent any weather packets the latest 10 day(s).

<< 21 22 23 24 25 26 27 >>
Time Temp. Humidity Pressure Rain* Wind** Luminosity Snow
1788515633 30° C 69% 1017.6 hPa 0 mm 0.45 m/s, 68° - -
1788515454 30° C 72% 1017.6 hPa 0 mm 0.89 m/s, 60° - -
1788515273 30° C 70% 1017.6 hPa 0 mm 1.79 m/s, 70° - -
1788515093 30° C 70% 1017.6 hPa 0 mm 1.79 m/s, 80° - -
1788514914 30° C 70% 1017.6 hPa 0 mm 1.79 m/s, 68° - -
1788514733 30° C 72% 1017.6 hPa 0 mm 1.79 m/s, 67° - -
1788514553 30° C 71% 1017.6 hPa 0 mm 1.79 m/s, 61° - -
1788514374 30.56° C 70% 1017.6 hPa 0 mm 1.34 m/s, 65° - -
1788514193 30.56° C 70% 1017.6 hPa 0 mm 0 m/s - -
1788514013 30° C 71% 1017.6 hPa 0 mm 1.79 m/s, 65° - -
1788513834 30.56° C 69% 1017.9 hPa 0 mm 0.45 m/s, 58° - -
1788513653 30.56° C 71% 1017.9 hPa 0 mm 0 m/s - -
1788513473 30° C 70% 1017.9 hPa 0 mm 1.79 m/s, 51° - -
1788513293 30° C 70% 1017.9 hPa 0 mm 1.34 m/s, 66° - -
1788513088 30.56° C 69% 1017.9 hPa 0 mm 0.89 m/s, 78° - -
1788508802 30° C 66% 1017.9 hPa 0 mm 0.45 m/s, 78° - -
1788508617 30.56° C 66% 1017.9 hPa 0 mm 0.45 m/s, 85° - -
1788508003 30.56° C 66% 1017.2 hPa 0 mm 0.45 m/s, 87° - -
1788507825 30° C 65% 1017.2 hPa 0 mm 0 m/s - -
1788507643 30° C 66% 1017.2 hPa 0 mm 0 m/s - -
1788507463 30° C 66% 1017.2 hPa 0 mm 0 m/s - -
1788507283 30° C 66% 1017.6 hPa 0 mm 0 m/s - -
1788507102 30° C 67% 1017.6 hPa 0 mm 0 m/s - -
1788506922 29.44° C 66% 1017.6 hPa 0 mm 0.45 m/s, 70° - -
1788506742 29.44° C 66% 1017.6 hPa 0 mm 0.45 m/s, 74° - -

* Rain latest hour (hover to see other rain measurements)
** Current wind speed in m/s (hover to see current wind gust speed)